Regional Weather Roundup
Issued by NWS Cleveland, OH

Home | Current Version | Previous Version | Graphics & Text | Print | Product List | Glossary On
Versions: 1 2 3 4 5 6 7 8 9 10 11 12 13 14 15 16 17 18 19 20 21 22 23 24 25 26 27 28 29 30 31 32 33 34 35 36 37 38 39 40 41 42 43 44 45 46 47 48 49 50
000
ASUS41 KCLE 242202
RWRCLE
OHIO REGIONAL WEATHER ROUNDUP
NATIONAL WEATHER SERVICE CLEVELAND, OH
600 PM EDT FRI OCT 24 2014

NOTE: "FAIR" INDICATES FEW OR NO CLOUDS BELOW 12,000 FEET WITH NO
SIGNIFICANT WEATHER AND/OR OBSTRUCTIONS TO VISIBILITY.

OHZ001>008-015>018-024>027-034-035-043-044-242300-
   NORTHWEST OHIO

CITY           SKY/WX    TMP DP  RH WIND       PRES   REMARKS
DEFIANCE       MOCLDY    60  47  61 S5        30.00F
FINDLAY        PTCLDY    62  44  51 SW5       29.99S
TOLEDO EXPRESS CLOUDY    58  45  62 W6        30.00S
TOLEDO EXEC    CLOUDY    60  44  55 W6        30.00F HAZE
LIMA           MOCLDY    62  44  51 W6        30.00F
$$

OHZ009>014-019>023-028>033-038-089-242300-
   NORTHEAST OHIO

CITY           SKY/WX    TMP DP  RH WIND       PRES   REMARKS
CLE-HOPKINS    PTCLDY    56  45  66 N7        30.01F
CLE-LAKEFRONT  CLEAR     57  45  64 CALM      29.99F
CUY CO. ARPT   PTCLDY    57  46  67 NW7       30.01F
LORAIN-ELYRIA  CLOUDY    57  45  64 N3        30.00S
ASHTABULA      CLEAR     55  42  61 N6        30.00S
AKRON-CANTON   PTCLDY    60  39  45 SW5       30.00S
WOOSTER        CLEAR     60  36  40 W6        30.01S
MANSFIELD      CLOUDY    60  38  43 SW7       30.02R
YOUNGSTOWN     PTCLDY    58  39  49 SW7       29.99R
$$

OHZ042-051>053-060>062-070>072-077>081-242300-
  SOUTHWEST OHIO

CITY           SKY/WX    TMP DP  RH WIND       PRES   REMARKS
CINC-COVINGTON PTCLDY    64  38  38 SW5       30.04S
CINC-LUNKEN    CLEAR     63  42  46 SW6       30.04S HAZE
HAMILTON       CLEAR     65  41  41 S3        30.04S
DAYTON         PTCLDY    63  40  42 SW8       30.03S
WRIGHT-PAT AFB CLEAR     63  42  47 S8        30.02F
DAYTON GENERAL CLEAR     63  38  39 SW6       30.03R
WILMINGTON     CLEAR     62  36  37 W8        30.03S
$$

OHZ036-037-039>041-045>050-054>059-063>069-073>076-082>088-242300-
  CENTRAL AND SOUTHEAST OHIO

CITY           SKY/WX    TMP DP  RH WIND       PRES   REMARKS
COLUMBUS       CLEAR     63  37  38 W6        30.02R
OSU AIRPORT    CLEAR     62  36  37 SW7       30.02R
BOLTON FIELD   CLEAR     63  37  39 SW6       30.03R
RICKENBACK AFB NOT AVBL
NEWARK         CLEAR     62  40  44 W3        30.02R
MARION         MOCLDY    63  38  39 W5        30.00F
LANCASTER      CLEAR     62  40  44 SW5       30.02S
ZANESVILLE     CLEAR     60  38  43 W5        30.02S
NEW PHILLY     CLEAR     62  39  42 W5        30.01S
$$



USA.gov is the U.S. government's official web portal to all federal, state and local government web resources and services.